"Time","Temp","Dewpoint","Humidity","Pressure","Direction","Speed","Gust","Precip","PrecipRate"
"00:04:56","64.7","62.3","92","30.03","183","0","0","0.00","0.00"
"00:09:59","64.6","62.3","92.4","30.03","183","0","0","0.00","0.00"
"00:14:58","64.5","62.4","93","30.03","183","0","0","0.00","0.00"
"00:19:56","64.5","62.4","93","30.02","183","0","0","0.00","0.00"
"00:24:57","64.4","62.3","93","30.02","183","0","0","0.00","0.00"
"00:29:59","64.4","62.3","93","30.02","183","0","0","0.00","0.00"
"00:34:56","64.3","62.2","93","30.01","183","0","0","0.00","0.00"
"00:39:59","64.3","62.2","93","30.01","183","0","0","0.00","0.00"
"00:44:57","64.1","62","93","30.01","183","0","0","0.00","0.00"
"00:49:59","64","61.9","93","30.01","183","0","0","0.00","0.00"
"00:54:56","63.8","61.7","93","30.01","183","0","0","0.00","0.00"
"00:59:58","63.6","61.7","93.7","30.01","183","0","0","0.00","0.00"
"01:04:59","63.5","61.7","94","30.00","183","0","0","0.00","0.00"
"01:09:57","63.4","61.6","94","30.00","183","0","0","0.00","0.00"
"01:14:56","63.3","61.5","94","30.00","183","0","0","0.00","0.00"
"01:19:58","63.3","61.7","94.6","30.00","183","0","0","0.00","0.00"
"01:24:59","63.3","61.8","95","30.00","183","0","0","0.00","0.00"
"01:29:57","63.2","61.7","95","30.00","183","0","0","0.00","0.00"
"01:34:58","63.1","61.6","95","30.00","183","0","0","0.00","0.00"
"01:39:57","63.1","61.6","95","30.00","183","0","0","0.00","0.00"
"01:44:56","63","61.5","95","30.01","183","0","0","0.00","0.00"
"01:49:57","62.8","61.3","95","30.01","183","0","0","0.00","0.00"
"01:54:59","62.8","61.3","95","30.01","183","0","0","0.00","0.00"
"01:59:57","62.6","61.1","95","30.01","183","0","0","0.00","0.00"
"02:04:58","62.6","61.1","95","30.00","183","0","0","0.00","0.00"
"02:09:56","62.5","61","95","30.00","183","0","0","0.00","0.00"
"02:14:59","62.4","60.9","95","30.00","183","0","0","0.00","0.00"
"02:19:57","62.2","60.8","95","30.00","183","0","0","0.00","0.00"
"02:24:58","62.1","60.7","95","30.00","183","0","0","0.00","0.00"
"02:29:56","62","60.6","95","30.00","183","0","0","0.00","0.00"
"02:34:57","61.8","60.4","95","30.00","183","0","0","0.00","0.00"
"02:39:56","61.7","60.3","95","30.00","183","0","0","0.00","0.00"
"02:44:58","61.6","60.3","95.3","30.00","183","0","0","0.00","0.00"
"02:49:59","61.8","60.6","96","30.00","183","0","0","0.00","0.00"
"02:54:57","61.8","60.6","96","30.00","183","0","0","0.00","0.00"
"02:59:59","61.6","60.3","95.5","30.00","183","0","0","0.00","0.00"
"03:04:56","61.5","60.2","95.1","30.00","183","0","0","0.00","0.00"
"03:09:58","61.5","60.3","95.9","30.00","183","0.4","2.3","0.00","0.00"
"03:14:57","61.5","60.3","96","30.00","182","0.9","3","0.00","0.00"
"03:19:59","61.4","60.2","96","30.00","183","0.2","2.3","0.00","0.00"
"03:24:57","61.3","60.2","96","30.00","183","0","0","0.00","0.00"
"03:29:58","61.2","60.1","96","30.00","183","0","0","0.00","0.00"
"03:34:56","61","59.9","96","30.00","183","0","0","0.00","0.00"
"03:39:59","60.9","59.8","96","30.00","183","0","1.2","0.00","0.00"
"03:44:57","60.9","59.8","96","30.00","183","0","0","0.00","0.00"
"03:49:58","60.9","59.8","96","30.00","183","0","0","0.00","0.00"
"03:54:56","60.9","59.8","96","30.00","183","0","0","0.00","0.00"
"03:59:57","60.9","59.8","96","30.00","183","0","0","0.00","0.00"
"04:04:58","60.8","59.7","96","29.99","183","0","0","0.00","0.00"
"04:09:56","60.7","59.6","96","29.99","183","0","0","0.00","0.00"
"04:14:59","60.6","59.5","96","29.99","183","0","0","0.00","0.00"
"04:19:57","60.5","59.4","96","29.99","183","0","0","0.00","0.00"
"04:24:58","60.4","59.3","96","29.99","183","0","0","0.00","0.00"
"04:29:56","60.3","59.2","96","29.99","183","0","0","0.00","0.00"
"04:34:57","60.1","59","96","29.99","183","0","0","0.00","0.00"
"04:39:57","60","58.9","96","29.99","183","0","0","0.00","0.00"
"04:44:58","59.9","58.8","96.1","29.99","183","0","0","0.00","0.00"
"04:49:56","60.1","59.2","97","29.99","183","0.1","1.2","0.00","0.00"
"04:54:58","60.1","59.2","97","29.99","183","0","0","0.00","0.00"
"04:59:59","60.1","59","96","29.99","183","0","0","0.00","0.00"
"05:04:56","60","58.9","96","29.99","183","0","2","0.00","0.00"
"05:09:58","59.8","58.7","96","29.99","183","0.3","2.3","0.00","0.00"
"05:14:57","59.8","58.7","96","29.99","183","0","0","0.00","0.00"
"05:19:59","59.8","58.7","96.2","29.99","183","0","0","0.00","0.00"
"05:24:56","59.8","58.7","96.2","29.99","183","0","0","0.00","0.00"
"05:29:58","59.8","58.7","96","30.00","183","0","0","0.00","0.00"
"05:34:59","59.7","58.6","96","30.00","183","0","0","0.00","0.00"
"05:39:58","59.6","58.5","96","30.00","183","0","0","0.00","0.00"
"05:44:56","59.4","58.3","96","30.00","183","0","0","0.00","0.00"
"05:49:58","59.2","58.1","96","29.99","183","0","0","0.00","0.00"
"05:54:59","59.1","58","96","29.99","183","0","0","0.00","0.00"
"05:59:57","59.2","58.3","96.9","30.00","183","0","0","0.00","0.00"
"06:04:58","59.3","58.4","97","30.00","183","0","0","0.00","0.00"
"06:09:57","59.3","58.4","97","30.00","183","0","0","0.00","0.00"
"06:14:56","59.3","58.4","97","30.00","183","0","0","0.00","0.00"
"06:19:58","59.3","58.4","97","30.00","183","0","0","0.00","0.00"
"06:24:56","59.3","58.4","97","30.00","183","0","0","0.00","0.00"
"06:29:57","59.6","58.9","97.4","30.01","183","0","0","0.00","0.00"
"06:34:58","59.9","59.3","98","30.01","183","0","0","0.00","0.00"
"06:39:57","60.2","59.6","98","30.01","183","0.2","3","0.00","0.00"
"06:44:58","60.4","59.8","97.8","30.01","183","1.1","3.5","0.00","0.00"
"06:49:59","60.5","59.6","97","30.01","183","0.9","2.3","0.00","0.00"
"06:54:57","60.6","59.7","97","30.01","183","0.2","1.2","0.00","0.00"
"06:59:58","60.7","59.9","97.2","30.01","183","0.8","2.3","0.00","0.00"
"07:04:59","60.8","60.1","97.7","30.01","183","0.1","1.2","0.00","0.00"
"07:09:57","60.9","60.3","98","30.01","183","0.3","1.2","0.00","0.00"
"07:14:59","61","60.2","97.5","30.02","183","0.2","2.3","0.00","0.00"
"07:19:57","60.9","60","97","30.02","183","0.1","1.2","0.00","0.00"
"07:24:58","61","60.3","97.6","30.02","183","0.3","2.3","0.00","0.00"
"07:29:59","61.2","60.6","98","30.02","184","0.3","2.3","0.00","0.00"
"07:34:57","61.4","60.7","97.8","30.02","184","0.4","2.3","0.00","0.00"
"07:39:59","61.5","60.9","98","30.02","184","0.4","2.3","0.00","0.00"
"07:44:57","61.8","61.2","98","30.03","184","1.6","3.5","0.00","0.00"
"07:49:58","61.9","61.2","97.7","30.03","184","1","3.5","0.00","0.00"
"07:54:56","62.1","61.5","98","30.03","258","1.3","4","0.00","0.00"
"07:59:58","62.4","61.8","98","30.03","319","0.7","2.3","0.00","0.00"
"08:04:59","62.7","62.1","98","30.03","316","0.4","3","0.00","0.00"
"08:09:57","63.1","62.5","98","30.03","149","0.8","3.5","0.00","0.00"
"08:14:59","63.5","62.9","98","30.03","128","0.4","3","0.00","0.00"
"08:19:57","63.9","63.3","98","30.03","5","1","3.5","0.00","0.00"
"08:24:58","64.3","63.7","98","30.03","5","0.7","2.3","0.00","0.00"
"08:29:55","64.6","64","98","30.03","5","0.8","4","0.00","0.00"
"08:34:57","65.1","64.3","97.2","30.03","327","1.1","3.5","0.00","0.00"
"08:39:59","65.5","64.6","97","30.03","248","1.5","3.5","0.00","0.00"
"08:44:57","65.9","64.9","96.6","30.03","220","0.8","3.5","0.00","0.00"
"08:49:58","66.4","65.2","96","30.02","241","1.4","3.5","0.00","0.00"
"08:54:56","66.8","65.3","95","30.02","279","2","4","0.00","0.00"
"08:59:57","67.2","65.5","94.2","30.02","311","1.2","3.5","0.00","0.00"
"09:04:54","67.8","66.1","94.1","30.02","311","0.7","3.5","0.00","0.00"
"09:09:56","68.3","66.3","93.2","30.02","315","1.1","4","0.00","0.00"
"09:14:58","69","66.4","91.6","30.02","311","1.1","4","0.00","0.00"
"09:19:56","69.5","66.3","89.6","30.02","284","0.9","2.3","0.00","0.00"
"09:24:57","70","66.3","88.2","30.02","275","0.6","3.5","0.00","0.00"
"09:29:58","70.5","66.5","87.1","30.02","328","0.7","4","0.00","0.00"
"09:34:56","71","66.4","85.3","30.02","328","0.5","2.3","0.00","0.00"
"09:39:58","71.7","67","85","30.02","146","0.3","2","0.00","0.00"
"09:44:56","72.5","67.6","84.7","30.02","109","1","5","0.00","0.00"
"09:49:58","72.9","66.6","80.5","30.01","5","1.2","4.6","0.00","0.00"
"09:54:59","73.1","66.4","79.7","30.01","8","0.9","3.5","0.00","0.00"
"09:59:57","73.4","66.9","80.2","30.01","10","0.7","3.5","0.00","0.00"
"10:04:57","73.7","66.8","79.1","30.00","11","0.4","3.5","0.00","0.00"
"10:09:59","74.1","66.9","78.1","30.00","11","1","3.5","0.00","0.00"
"10:14:58","74.4","64.9","72.1","30.00","12","0.7","2.3","0.00","0.00"
"10:19:56","74.9","66.3","74.8","30.00","12","0.1","2.3","0.00","0.00"
"10:24:57","75.5","65.9","72.3","30.00","316","1.3","3.5","0.00","0.00"
"10:29:58","75.7","65.1","69.6","30.00","204","0.6","3.5","0.00","0.00"
"10:34:59","76","66","71.2","30.00","210","1.4","5","0.00","0.00"
"10:39:59","76.1","65.2","69.1","30.00","230","1.9","4","0.00","0.00"
"10:44:56","76.2","65.6","69.6","30.00","205","1.8","4","0.00","0.00"
"10:49:58","76.3","64.6","67.1","30.00","239","1.5","4","0.00","0.00"
"10:54:59","76.4","65.2","68.4","30.00","261","1.8","5","0.00","0.00"
"10:59:56","76.9","64.9","66.6","30.00","182","2.4","4.6","0.00","0.00"
"11:04:58","77.3","64.1","63.7","30.00","187","1.5","4","0.00","0.00"
"11:09:56","77.7","64.7","64.4","30.00","174","0.7","3.5","0.00","0.00"
"11:14:58","78.3","65.2","64.2","30.00","154","1.9","5","0.00","0.00"
"11:19:57","78.9","65.9","64.5","30.00","159","1.7","5","0.00","0.00"
"11:24:59","79.2","63.6","59","30.00","135","1.5","6","0.00","0.00"
"11:29:58","79.5","62.8","56.8","30.00","131","2","5","0.00","0.00"
"11:34:56","79.7","63","56.9","30.00","184","3.5","7","0.00","0.00"
"11:39:56","79.6","62.8","56.7","30.00","174","2.7","5","0.00","0.00"
"11:44:58","79.7","63.4","57.7","30.00","117","1.6","4","0.00","0.00"
"11:49:57","79.9","63.6","57.6","29.99","134","2","4","0.00","0.00"
"11:54:55","79.7","62.8","56.4","29.99","190","3.4","7","0.00","0.00"
"11:59:58","79.8","62.9","56.5","29.99","235","1.8","5","0.00","0.00"
"12:04:56","80.3","63.9","57.5","29.99","175","2.3","5","0.00","0.00"
"12:09:59","80.6","63.1","55.3","29.99","195","2.6","6","0.00","0.00"
"12:14:58","80.8","63.3","55.3","29.99","188","2.1","5","0.00","0.00"
"12:19:57","81.1","64.1","56.4","29.99","211","2.5","6","0.00","0.00"
"12:24:59","81.1","63.5","55.2","29.99","148","2","5","0.00","0.00"
"12:29:57","81.1","62.6","53.6","29.99","162","2.5","5","0.00","0.00"
"12:34:56","81.1","61.9","52.1","29.98","171","2","5","0.00","0.00"
"12:39:59","81.3","63.9","55.6","29.98","190","2.1","5","0.00","0.00"
"12:44:58","81.5","64.4","56.4","29.98","201","2.9","6","0.00","0.00"
"12:49:56","81.6","63.7","54.8","29.97","171","2.4","5","0.00","0.00"
"12:54:59","81.5","64.5","56.3","29.97","159","2.2","5","0.00","0.00"
"12:59:57","81.6","63.9","55","29.97","191","0.9","5","0.00","0.00"
"13:04:59","81.3","64.1","55.9","29.97","188","2.6","7","0.00","0.00"
"13:09:58","81.5","64.3","56.1","29.97","186","3.2","6","0.00","0.00"
"13:14:58","81.8","65.5","57.9","29.98","202","1.9","4.6","0.00","0.00"
"13:19:57","81.7","63.6","54.3","29.98","182","2.7","7","0.00","0.00"
"13:24:59","81.9","64","54.8","29.98","188","3.3","7","0.00","0.00"
"13:29:58","82.2","64.8","55.9","29.98","180","1.4","6","0.00","0.00"
"13:34:56","82.6","64.1","53.8","29.98","182","2.3","6","0.00","0.00"
"13:39:56","82.7","63.3","52.1","29.98","147","1.7","3.5","0.00","0.00"
"13:44:58","82.7","64.4","54.1","29.98","148","0.4","3","0.00","0.00"
"13:49:57","82.9","64.8","54.4","29.97","207","2.2","4","0.00","0.00"
"13:54:59","83","63.9","52.7","29.97","198","2.3","6","0.00","0.00"
"13:59:58","83.1","64.3","53.1","29.97","188","2.2","5","0.00","0.00"
"14:04:56","83.4","64.7","53.5","29.97","173","2.5","5","0.00","0.00"
"14:09:59","83.5","64.7","53.3","29.97","180","2.2","5","0.00","0.00"
"14:14:59","83.8","65.1","53.6","29.97","208","2.7","6","0.00","0.00"
"14:19:57","83.6","62.8","49.7","29.97","240","2.2","5","0.00","0.00"
"14:24:56","83.6","63.5","51","29.97","202","3.1","6","0.00","0.00"
"14:29:58","83.5","65.1","54","29.97","212","2.3","5","0.00","0.00"
"14:34:56","83.5","63.1","50.3","29.97","311","1.8","5","0.00","0.00"
"14:39:56","83.7","64.3","52.2","29.97","161","3.4","9.2","0.00","0.00"
"14:44:59","83.8","64","51.4","29.97","131","1.8","6","0.00","0.00"
"14:49:57","83.7","64.4","52.4","29.97","131","1.4","6","0.00","0.00"
"14:54:57","83.6","64.6","52.8","29.97","127","1.1","2.3","0.00","0.00"
"14:59:59","83.9","65","53.1","29.97","171","2","6","0.00","0.00"
"15:04:57","84.1","64.7","52.3","29.95","180","2","6","0.00","0.00"
"15:09:57","84.2","64.7","52","29.95","196","2.9","5.8","0.00","0.00"
"15:14:56","84.2","64.6","52","29.95","172","1.8","4.6","0.00","0.00"
"15:19:59","84.3","65.3","52.9","29.95","178","2.5","9","0.00","0.00"
"15:24:58","84.5","64.6","51.4","29.95","178","4.3","9.2","0.00","0.00"
"15:29:56","84.4","64.3","50.9","29.95","172","2.6","6","0.00","0.00"
"15:34:59","84.3","63","49","29.94","163","1.3","3.5","0.00","0.00"
"15:39:59","84.3","63.7","50","29.94","181","3","7","0.00","0.00"
"15:44:57","84.5","64.4","51","29.94","172","2.1","5","0.00","0.00"
"15:49:56","84.8","63.8","49.6","29.93","146","1.9","4","0.00","0.00"
"15:54:58","84.8","63.5","49","29.93","202","1.6","5","0.00","0.00"
"15:59:56","84.9","63.5","48.9","29.93","207","2.4","6","0.00","0.00"
"16:04:59","84.9","63.6","48.9","29.93","156","3.2","5","0.00","0.00"
"16:09:58","84.9","62.8","47.6","29.93","141","1.9","5","0.00","0.00"
"16:14:58","84.9","63.8","49.4","29.93","141","1.8","6","0.00","0.00"
"16:19:56","84.9","63.8","49.2","29.92","169","2.9","6","0.00","0.00"
"16:24:59","84.8","63.7","49.3","29.92","147","2.4","5","0.00","0.00"
"16:29:57","84.8","63.8","49.7","29.92","186","3.1","6","0.00","0.00"
"16:34:56","84.9","63.5","48.8","29.92","198","2.4","6","0.00","0.00"
"16:39:59","84.8","63.6","49.1","29.92","184","2.7","6","0.00","0.00"
"16:44:58","84.7","63.3","48.8","29.92","160","2.9","6","0.00","0.00"
"16:49:57","84.6","64.4","50.8","29.91","200","2.4","5","0.00","0.00"
"16:54:59","84.8","63.8","49.5","29.91","222","1.9","6","0.00","0.00"
"16:59:58","84.8","64.5","50.8","29.91","176","3.7","7","0.00","0.00"
"17:04:56","84.6","64.6","51.1","29.91","189","3.1","8.1","0.00","0.00"
"17:09:59","84.7","64.8","51.6","29.91","197","1.3","5","0.00","0.00"
"17:14:59","84.4","63.5","49.6","29.91","143","3.3","10.4","0.00","0.00"
"17:19:57","84","63.6","50.5","29.91","169","3.7","9.2","0.00","0.00"
"17:24:56","83.9","64.2","51.7","29.91","168","3.2","9.2","0.00","0.00"
"17:29:58","84","64.4","51.8","29.91","177","2.4","5","0.00","0.00"
"17:34:57","84","64.7","52.5","29.91","205","2.7","5","0.00","0.00"
"17:39:56","84","64.3","51.8","29.91","172","3.7","9.2","0.00","0.00"
"17:44:59","83.8","63.7","51","29.91","173","3.5","10.4","0.00","0.00"
"17:49:58","83.6","63.8","51.4","29.90","191","2.9","5","0.00","0.00"
"17:54:56","83.4","63.8","51.8","29.90","176","3","6","0.00","0.00"
"17:59:59","83.3","63.8","52","29.90","154","2.6","5","0.00","0.00"
"18:04:57","83.2","63.4","51.5","29.90","162","3.1","7","0.00","0.00"
"18:09:56","82.8","63.2","51.6","29.90","155","2","5.8","0.00","0.00"
"18:14:59","82.6","63.3","52.2","29.90","184","2.6","5","0.00","0.00"
"18:19:58","82.5","63.3","52.5","29.89","184","2.7","7","0.00","0.00"
"18:24:56","82.3","63.9","53.7","29.89","173","2.1","4","0.00","0.00"
"18:29:59","82.2","63.9","54","29.89","179","2.4","6","0.00","0.00"
"18:34:57","82.1","63.5","53.5","29.89","142","3.4","7","0.00","0.00"
"18:39:57","81.9","64.2","55.1","29.89","142","1.6","6","0.00","0.00"
"18:44:59","81.8","63.8","54.5","29.89","189","2.9","6","0.00","0.00"
"18:49:58","81.6","63.7","54.7","29.89","195","3.2","7","0.00","0.00"
"18:54:56","81.3","63.5","54.8","29.89","196","2.9","7","0.00","0.00"
"18:59:59","81.1","63.8","55.9","29.89","205","2.2","6.9","0.00","0.00"
"19:04:57","81","63.8","56","29.89","201","2","5","0.00","0.00"
"19:09:56","80.8","63.2","55.2","29.89","162","3","6","0.00","0.00"
"19:14:57","80.7","63.7","56.4","29.89","169","1.5","5.8","0.00","0.00"
"19:19:59","80.5","63.3","55.8","29.89","200","2.8","6","0.00","0.00"
"19:24:58","80.3","63.6","56.7","29.89","204","2.6","6","0.00","0.00"
"19:29:56","80.1","63.7","57.3","29.89","188","2.9","6","0.00","0.00"
"19:34:59","79.9","63.5","57.5","29.89","179","2.9","6","0.00","0.00"
"19:39:59","79.7","63.4","57.7","29.89","174","2.2","4","0.00","0.00"
"19:44:57","79.4","63.5","58.4","29.89","173","2.4","5","0.00","0.00"
"19:49:56","79.2","63.5","58.8","29.89","175","2","5","0.00","0.00"
"19:54:59","78.9","63.4","59.1","29.89","150","2.4","6","0.00","0.00"
"19:59:57","78.8","63.3","59.1","29.89","138","2.3","5","0.00","0.00"
"20:04:57","78.6","63.3","59.3","29.88","172","2.2","5","0.00","0.00"
"20:09:59","78.3","63.2","59.8","29.88","190","1.8","4","0.00","0.00"
"20:14:58","78.1","63.2","60.2","29.88","143","2.2","5","0.00","0.00"
"20:19:56","78","63","60.2","29.88","155","2.1","5","0.00","0.00"
"20:24:58","77.7","62.9","60.5","29.88","174","3.3","7","0.00","0.00"
"20:29:56","77.4","63","61.1","29.88","192","1.6","4.6","0.00","0.00"
"20:34:57","77.2","62.7","61.1","29.88","144","2.1","4","0.00","0.00"
"20:39:57","77","62.7","61.6","29.88","162","1.9","4","0.00","0.00"
"20:44:58","76.7","62.7","62","29.88","157","2.6","5","0.00","0.00"
"20:49:56","76.4","62.5","62.2","29.88","159","1.7","4.6","0.00","0.00"
"20:54:58","76.1","62.4","62.5","29.88","151","1.3","4","0.00","0.00"
"20:59:56","75.9","62.1","62.5","29.88","153","1.9","5","0.00","0.00"
"21:04:57","75.6","62","62.6","29.88","163","1.6","4","0.00","0.00"
"21:09:59","75.4","61.9","63","29.88","158","1.1","3.5","0.00","0.00"
"21:14:58","75.1","61.6","63","29.88","158","1.3","4","0.00","0.00"
"21:19:56","74.9","61.5","63","29.88","158","1.8","4","0.00","0.00"
"21:24:58","74.7","61.2","62.7","29.88","138","1.6","5","0.00","0.00"
"21:29:56","74.5","61","62.8","29.88","163","2","4","0.00","0.00"
"21:34:57","74.2","60.8","62.9","29.88","164","2","4","0.00","0.00"
"21:39:56","74","60.6","63","29.88","164","1.5","3.5","0.00","0.00"
"21:44:58","73.8","60.4","63","29.88","164","1","3.5","0.00","0.00"
"21:49:57","73.6","60.6","63.8","29.88","165","0.9","2.3","0.00","0.00"
"21:54:58","73.3","60.4","64","29.88","165","1","3.5","0.00","0.00"
"21:59:56","73","60.2","64.4","29.88","163","1.1","3.5","0.00","0.00"
"22:04:57","72.8","60.3","65","29.88","163","0.5","2.3","0.00","0.00"
"22:09:59","72.6","60.4","65.6","29.88","163","0.5","2.3","0.00","0.00"
"22:14:58","72.2","60.7","67.3","29.88","163","0.1","1.2","0.00","0.00"
"22:19:56","71.9","60.8","68","29.88","163","0.1","1.2","0.00","0.00"
"22:24:57","71.5","60.8","69","29.88","163","0","0","0.00","0.00"
"22:29:59","71","61.1","71.2","29.88","163","0.2","2","0.00","0.00"
"22:34:57","70.3","60.8","72","29.88","163","0","0","0.00","0.00"
"22:39:56","69.8","60.6","72.7","29.88","163","0","0","0.00","0.00"
"22:44:58","69.3","60.8","74.4","29.88","163","0","0","0.00","0.00"
"22:49:56","68.9","60.9","75.6","29.88","163","0","0","0.00","0.00"
"22:54:58","68.4","60.6","76.2","29.88","163","0.2","2.3","0.00","0.00"
"22:59:56","67.9","60.4","76.8","29.88","163","0","0","0.00","0.00"
"23:04:57","67.6","60.5","77.9","29.88","163","0","0","0.00","0.00"
"23:09:59","67.6","60.6","78.3","29.88","163","0","1.2","0.00","0.00"
"23:14:59","67.5","60.7","78.7","29.88","163","0.3","1.2","0.00","0.00"
"23:19:56","67.6","60.8","78.8","29.88","163","0.8","3","0.00","0.00"
"23:24:58","67.8","61","79","29.88","163","1.4","3.5","0.00","0.00"
"23:29:56","67.8","61","79.1","29.89","163","0.4","2.3","0.00","0.00"
"23:34:58","67.6","61.2","80","29.89","163","0","0","0.00","0.00"
"23:39:57","67.2","60.8","80","29.89","163","0","0","0.00","0.00"
"23:44:59","66.8","60.5","80.2","29.89","163","0","0","0.00","0.00"
"23:49:57","66.5","60.5","81","29.89","163","0","0","0.00","0.00"
"23:54:58","66.2","60.5","82.1","29.89","163","0","0","0.00","0.00"
"23:59:56","65.8","60.5","83","29.90","163","0","0","0.00","0.00"
